| time (UTC) | temp F | wind direction | speed knots | gust knots | rain 1hr in | rain 24hr in | rain mn in | humidity % | barometer mb |
| 20260505211004 | 62 | 276 | 0.9 | 5.2 | 0.00 | 0.00 | 0.00 | 40 | 1019.1 |
| 20260505210504 | 62 | 297 | 2.6 | 10.4 | 0.00 | 0.00 | 0.00 | 40 | 1019.0 |
| 20260505210004 | 62 | 192 | 2.6 | 10.4 | 0.00 | 0.00 | 0.00 | 40 | 1019.1 |
| 20260505205503 | 63 | 144 | 0.9 | 7.0 | 0.00 | 0.00 | 0.00 | 41 | 1019.1 |
| 20260505205004 | 62 | 154 | 2.6 | 7.0 | 0.00 | 0.00 | 0.00 | 41 | 1019.0 |
| 20260505204003 | 62 | 237 | 4.3 | 7.0 | 0.00 | 0.00 | 0.00 | 41 | 1018.9 |
| 20260505203504 | 61 | 271 | 0.9 | 6.1 | 0.00 | 0.00 | 0.00 | 42 | 1018.9 |
| 20260505203003 | 61 | 278 | 5.2 | 7.8 | 0.00 | 0.00 | 0.00 | 42 | 1018.8 |
| 20260505202503 | 61 | 247 | 2.6 | 6.1 | 0.00 | 0.00 | 0.00 | 42 | 1019.1 |
| 20260505202004 | 61 | 187 | 3.5 | 6.1 | 0.00 | 0.00 | 0.00 | 43 | 1019.2 |
| 20260505201004 | 61 | 271 | 0.9 | 6.1 | 0.00 | 0.00 | 0.00 | 42 | 1019.3 |
| 20260505200504 | 60 | 243 | 0.0 | 2.6 | 0.00 | 0.00 | 0.00 | 42 | 1019.3 |
| 20260505195504 | 60 | 248 | 0.0 | 6.1 | 0.00 | 0.00 | 0.00 | 42 | 1019.4 |
| 20260505195004 | 61 | 332 | 1.7 | 4.3 | 0.00 | 0.00 | 0.00 | 42 | 1019.4 |
| 20260505194504 | 60 | 358 | 1.7 | 5.2 | 0.00 | 0.00 | 0.00 | 43 | 1019.6 |
| 20260505194003 | 60 | 16 | 1.7 | 2.6 | 0.00 | 0.00 | 0.00 | 43 | 1019.6 |
| 20260505193503 | 60 | 258 | 5.2 | 8.7 | 0.00 | 0.00 | 0.00 | 42 | 1019.5 |
| 20260505193004 | 61 | 298 | 4.3 | 10.4 | 0.00 | 0.00 | 0.00 | 42 | 1019.3 |
| 20260505192504 | 61 | 144 | 1.7 | 10.4 | 0.00 | 0.00 | 0.00 | 42 | 1019.5 |
| 20260505192003 | 61 | 29 | 1.7 | 4.3 | 0.00 | 0.00 | 0.00 | 43 | 1019.5 |
| 20260505191504 | 60 | 319 | 1.7 | 7.0 | 0.00 | 0.00 | 0.00 | 44 | 1019.5 |
| 20260505191004 | 61 | 12 | 4.3 | 7.8 | 0.00 | 0.00 | 0.00 | 43 | 1019.6 |
| 20260505190504 | 61 | 11 | 4.3 | 10.4 | 0.00 | 0.00 | 0.00 | 43 | 1019.5 |
| 20260505190004 | 62 | 12 | 4.3 | 10.4 | 0.00 | 0.00 | 0.00 | 42 | 1019.4 |
| 20260505185503 | 62 | 323 | 3.5 | 7.0 | 0.00 | 0.00 | 0.00 | 42 | 1019.5 |
| 20260505185004 | 62 | 317 | 2.6 | 7.8 | 0.00 | 0.00 | 0.00 | 41 | 1019.5 |
| 20260505184503 | 63 | 29 | 0.9 | 4.3 | 0.00 | 0.00 | 0.00 | 37 | 1019.5 |
| 20260505184003 | 62 | 27 | 0.0 | 1.7 | 0.00 | 0.00 | 0.00 | 37 | 1019.4 |
| 20260505183504 | 62 | 9 | 0.9 | 2.6 | 0.00 | 0.00 | 0.00 | 38 | 1019.4 |
| 20260505183004 | 62 | 79 | 1.7 | 5.2 | 0.00 | 0.00 | 0.00 | 38 | 1019.4 |
| 20260505182504 | 62 | 140 | 0.0 | 2.6 | 0.00 | 0.00 | 0.00 | 39 | 1019.4 |
| 20260505182004 | 62 | 139 | 1.7 | 2.6 | 0.00 | 0.00 | 0.00 | 39 | 1019.4 |
| 20260505181504 | 61 | 116 | 0.9 | 2.6 | 0.00 | 0.00 | 0.00 | 40 | 1019.4 |
| 20260505181004 | 61 | 110 | 1.7 | 7.8 | 0.00 | 0.00 | 0.00 | 41 | 1019.4 |
| 20260505180504 | 60 | 8 | 2.6 | 6.1 | 0.00 | 0.00 | 0.00 | 42 | 1019.3 |
| 20260505180003 | 59 | 79 | 1.7 | 5.2 | 0.00 | 0.00 | 0.00 | 42 | 1019.3 |
| 20260505175504 | 59 | 92 | 1.7 | 4.3 | 0.00 | 0.00 | 0.00 | 43 | 1019.3 |
| 20260505175004 | 59 | 6 | 3.5 | 6.1 | 0.00 | 0.00 | 0.00 | 41 | 1019.2 |
| 20260505174504 | 60 | 16 | 3.5 | 7.0 | 0.00 | 0.00 | 0.00 | 41 | 1019.1 |
| 20260505174003 | 60 | 353 | 1.7 | 4.3 | 0.00 | 0.00 | 0.00 | 41 | 1019.1 |
| 20260505173505 | 61 | 13 | 0.9 | 2.6 | 0.00 | 0.00 | 0.00 | 40 | 1019.1 |
| 20260505173004 | 61 | 32 | 4.3 | 7.0 | 0.00 | 0.00 | 0.00 | 39 | 1019.1 |
| 20260505172003 | 61 | 81 | 2.6 | 6.1 | 0.00 | 0.00 | 0.00 | 41 | 1019.0 |
| 20260505171504 | 60 | 104 | 2.6 | 6.1 | 0.00 | 0.00 | 0.00 | 42 | 1019.0 |
| 20260505171003 | 60 | 93 | 2.6 | 5.2 | 0.00 | 0.00 | 0.00 | 42 | 1019.0 |
| 20260505170004 | 59 | 32 | 1.7 | 4.3 | 0.00 | 0.00 | 0.00 | 43 | 1019.1 |
| 20260505165503 | 58 | 41 | 1.7 | 4.3 | 0.00 | 0.00 | 0.00 | 44 | 1019.0 |
| 20260505165003 | 58 | 106 | 0.9 | 2.6 | 0.00 | 0.00 | 0.00 | 43 | 1019.0 |
| 20260505164504 | 58 | 104 | 0.9 | 2.6 | 0.00 | 0.00 | 0.00 | 43 | 1019.0 |
| 20260505163504 | 59 | 129 | 0.9 | 4.3 | 0.00 | 0.00 | 0.00 | 42 | 1019.0 |
| 20260505163003 | 59 | 133 | 0.9 | 6.1 | 0.00 | 0.00 | 0.00 | 42 | 1019.0 |
| 20260505162504 | 59 | 101 | 0.9 | 2.6 | 0.00 | 0.00 | 0.00 | 44 | 1018.9 |
| 20260505161503 | 58 | 104 | 0.9 | 6.1 | 0.00 | 0.00 | 0.00 | 44 | 1018.8 |
| 20260505161004 | 58 | 83 | 1.7 | 2.6 | 0.00 | 0.00 | 0.00 | 45 | 1018.7 |
| 20260505160504 | 58 | 86 | 0.9 | 2.6 | 0.00 | 0.00 | 0.00 | 45 | 1018.5 |
| 20260505153003 | 57 | 113 | 0.0 | 1.7 | 0.00 | 0.00 | 0.00 | 46 | 1018.5 |
| 20260505152504 | 56 | 115 | 0.9 | 2.6 | 0.00 | 0.00 | 0.00 | 47 | 1018.4 |
| 20260505152003 | 56 | 116 | 0.9 | 2.6 | 0.00 | 0.00 | 0.00 | 48 | 1018.5 |
| 20260505151503 | 56 | 137 | 2.6 | 7.0 | 0.00 | 0.00 | 0.00 | 49 | 1018.3 |
| 20260505150504 | 55 | 139 | 4.3 | 7.0 | 0.00 | 0.00 | 0.00 | 49 | 1018.3 |
| 20260505140503 | 49 | 215 | 0.0 | 0.0 | 0.00 | 0.00 | 0.00 | 54 | 1018.0 |
| 20260505124504 | 43 | 245 | 0.0 | 0.0 | 0.00 | 0.00 | 0.00 | 63 | 1017.6 |
| 20260505124003 | 44 | 245 | 0.0 | 0.0 | 0.00 | 0.00 | 0.00 | 62 | 1017.6 |
| 20260505123504 | 44 | 245 | 0.0 | 0.9 | 0.00 | 0.00 | 0.00 | 61 | 1017.6 |
| 20260505123003 | 44 | 245 | 0.9 | 2.6 | 0.00 | 0.00 | 0.00 | 61 | 1017.6 |
| 20260505122503 | 45 | 242 | 1.7 | 2.6 | 0.00 | 0.00 | 0.00 | 60 | 1017.7 |
| 20260505122003 | 45 | 236 | 1.7 | 4.3 | 0.00 | 0.00 | 0.00 | 61 | 1017.6 |
| 20260505121503 | 45 | 235 | 1.7 | 2.6 | 0.00 | 0.00 | 0.00 | 60 | 1017.6 |
| 20260505121003 | 44 | 234 | 1.7 | 2.6 | 0.00 | 0.00 | 0.00 | 60 | 1017.6 |
| 20260505120504 | 44 | 233 | 1.7 | 4.3 | 0.00 | 0.00 | 0.00 | 60 | 1017.5 |
| 20260505120005 | 43 | 233 | 1.7 | 4.3 | 0.00 | 0.00 | 0.00 | 62 | 1017.6 |
| 20260505115504 | 43 | 235 | 0.0 | 1.7 | 0.00 | 0.00 | 0.00 | 65 | 1017.5 |
| 20260505115004 | 42 | 211 | 0.0 | 0.0 | 0.00 | 0.00 | 0.00 | 65 | 1017.5 |
| 20260505114504 | 41 | 211 | 0.0 | 0.0 | 0.00 | 0.00 | 0.00 | 64 | 1017.5 |
| 20260505114003 | 42 | 211 | 0.0 | 0.0 | 0.00 | 0.00 | 0.00 | 64 | 1017.6 |
| 20260505113503 | 42 | 211 | 0.0 | 0.0 | 0.00 | 0.00 | 0.00 | 63 | 1017.4 |
| 20260505112503 | 42 | 211 | 0.0 | 0.9 | 0.00 | 0.00 | 0.00 | 64 | 1017.5 |
| 20260505112005 | 42 | 211 | 0.0 | 0.0 | 0.00 | 0.00 | 0.00 | 63 | 1017.5 |
| 20260505111503 | 42 | 211 | 0.0 | 0.0 | 0.00 | 0.00 | 0.00 | 63 | 1017.4 |
| 20260505110504 | 42 | 211 | 0.0 | 0.0 | 0.00 | 0.00 | 0.00 | 64 | 1017.4 |
| 20260505102003 | 44 | 232 | 0.0 | 0.0 | 0.00 | 0.00 | 0.00 | 60 | 1017.5 |
| 20260505101504 | 44 | 232 | 0.0 | 0.9 | 0.00 | 0.00 | 0.00 | 61 | 1017.5 |
| 20260505101003 | 45 | 232 | 0.0 | 1.7 | 0.00 | 0.00 | 0.00 | 60 | 1017.6 |
| 20260505100003 | 44 | 237 | 1.7 | 2.6 | 0.00 | 0.00 | 0.00 | 61 | 1017.6 |
| 20260505095504 | 44 | 262 | 0.9 | 1.7 | 0.00 | 0.00 | 0.00 | 63 | 1017.5 |
| 20260505095005 | 44 | 297 | 0.9 | 2.6 | 0.00 | 0.00 | 0.00 | 62 | 1017.6 |
| 20260505094004 | 45 | 214 | 0.9 | 1.7 | 0.00 | 0.00 | 0.00 | 63 | 1017.6 |
| 20260505093505 | 45 | 236 | 0.0 | 0.0 | 0.00 | 0.00 | 0.00 | 62 | 1017.9 |
| 20260505092004 | 45 | 246 | 0.9 | 2.6 | 0.00 | 0.00 | 0.00 | 62 | 1017.9 |
| 20260505091504 | 46 | 221 | 0.9 | 1.7 | 0.00 | 0.00 | 0.00 | 61 | 1017.9 |
| 20260505091003 | 47 | 224 | 0.9 | 1.7 | 0.00 | 0.00 | 0.00 | 60 | 1017.9 |
| 20260505090004 | 47 | 232 | 1.7 | 4.3 | 0.00 | 0.00 | 0.00 | 61 | 1017.9 |
| 20260505085003 | 48 | 236 | 2.6 | 7.0 | 0.00 | 0.00 | 0.00 | 61 | 1018.0 |
| 20260505084503 | 48 | 216 | 1.7 | 4.3 | 0.00 | 0.00 | 0.00 | 62 | 1018.0 |
| 20260505084004 | 47 | 222 | 2.6 | 4.3 | 0.00 | 0.00 | 0.00 | 62 | 1018.0 |
| 20260505083504 | 47 | 229 | 1.7 | 2.6 | 0.00 | 0.00 | 0.00 | 62 | 1018.0 |
| 20260505083004 | 47 | 229 | 1.7 | 2.6 | 0.00 | 0.00 | 0.00 | 62 | 1018.0 |
| 20260505082503 | 47 | 229 | 1.7 | 2.6 | 0.00 | 0.00 | 0.00 | 62 | 1018.1 |
| 20260505082004 | 47 | 231 | 1.7 | 2.6 | 0.00 | 0.00 | 0.00 | 62 | 1018.1 |
| 20260505081504 | 47 | 236 | 0.9 | 2.6 | 0.00 | 0.00 | 0.00 | 62 | 1018.1 |
| 20260505081003 | 47 | 236 | 0.0 | 2.6 | 0.00 | 0.00 | 0.00 | 61 | 1018.4 |
| 20260505080004 | 48 | 230 | 1.7 | 2.6 | 0.00 | 0.00 | 0.00 | 60 | 1018.5 |
| 20260505075504 | 48 | 241 | 0.9 | 4.3 | 0.00 | 0.00 | 0.00 | 58 | 1018.5 |
| 20260505074505 | 48 | 229 | 0.9 | 4.3 | 0.00 | 0.00 | 0.00 | 60 | 1018.4 |
| 20260505074004 | 48 | 225 | 1.7 | 2.6 | 0.00 | 0.00 | 0.00 | 60 | 1018.4 |
| 20260505073503 | 48 | 240 | 1.7 | 2.6 | 0.00 | 0.00 | 0.00 | 60 | 1018.4 |
| 20260505072503 | 49 | 255 | 1.7 | 2.6 | 0.00 | 0.00 | 0.00 | 59 | 1018.4 |
| 20260505072004 | 49 | 245 | 1.7 | 2.6 | 0.00 | 0.00 | 0.00 | 58 | 1018.4 |
| 20260505071504 | 49 | 231 | 1.7 | 2.6 | 0.00 | 0.00 | 0.00 | 58 | 1018.4 |
| 20260505070504 | 50 | 237 | 2.6 | 4.3 | 0.00 | 0.00 | 0.00 | 57 | 1018.4 |
| 20260505070004 | 50 | 232 | 2.6 | 5.2 | 0.00 | 0.00 | 0.00 | 58 | 1018.4 |
| 20260505064004 | 50 | 234 | 1.7 | 4.3 | 0.00 | 0.00 | 0.00 | 55 | 1018.4 |
| 20260505063004 | 51 | 233 | 1.7 | 5.2 | 0.00 | 0.00 | 0.00 | 55 | 1018.3 |
| 20260505062503 | 51 | 224 | 2.6 | 5.2 | 0.00 | 0.00 | 0.00 | 54 | 1018.3 |
| 20260505062004 | 51 | 223 | 2.6 | 5.2 | 0.00 | 0.00 | 0.00 | 54 | 1018.5 |
| 20260505061503 | 51 | 230 | 1.7 | 2.6 | 0.00 | 0.00 | 0.00 | 54 | 1018.6 |
| 20260505061004 | 51 | 228 | 2.6 | 5.2 | 0.00 | 0.00 | 0.00 | 54 | 1018.5 |
| 20260505055504 | 52 | 220 | 2.6 | 5.2 | 0.00 | 0.00 | 0.00 | 53 | 1018.5 |
| 20260505055004 | 52 | 220 | 2.6 | 5.2 | 0.00 | 0.00 | 0.00 | 52 | 1018.6 |
| 20260505054504 | 52 | 217 | 1.7 | 4.3 | 0.00 | 0.00 | 0.00 | 52 | 1018.6 |
| 20260505054003 | 52 | 209 | 3.5 | 6.1 | 0.00 | 0.00 | 0.00 | 51 | 1018.7 |
| 20260505053504 | 52 | 218 | 2.6 | 6.1 | 0.00 | 0.00 | 0.00 | 51 | 1018.5 |
| 20260505053003 | 52 | 221 | 2.6 | 5.2 | 0.00 | 0.00 | 0.00 | 50 | 1018.5 |
| 20260505052504 | 52 | 216 | 2.6 | 5.2 | 0.00 | 0.00 | 0.00 | 49 | 1018.6 |
| 20260505052004 | 53 | 215 | 2.6 | 6.1 | 0.00 | 0.00 | 0.00 | 48 | 1018.5 |
| 20260505051504 | 53 | 218 | 2.6 | 10.4 | 0.00 | 0.00 | 0.00 | 48 | 1018.5 |
| 20260505051004 | 53 | 229 | 3.5 | 7.8 | 0.00 | 0.00 | 0.00 | 48 | 1018.6 |
| 20260505050503 | 53 | 225 | 2.6 | 6.1 | 0.00 | 0.00 | 0.00 | 48 | 1018.6 |
| 20260505041504 | 54 | 227 | 4.3 | 7.8 | 0.00 | 0.00 | 0.00 | 46 | 1018.2 |
| 20260505041005 | 54 | 223 | 4.3 | 11.3 | 0.00 | 0.00 | 0.00 | 46 | 1018.1 |
| 20260505040504 | 54 | 198 | 6.1 | 11.3 | 0.00 | 0.00 | 0.00 | 46 | 1018.1 |
| 20260505040005 | 54 | 222 | 6.1 | 11.3 | 0.00 | 0.00 | 0.00 | 46 | 1017.9 |
| 20260505035504 | 54 | 210 | 7.0 | 11.3 | 0.00 | 0.00 | 0.00 | 46 | 1017.9 |
| 20260505035004 | 54 | 216 | 5.2 | 10.4 | 0.00 | 0.00 | 0.00 | 46 | 1018.0 |
| 20260505034504 | 54 | 215 | 8.7 | 12.2 | 0.00 | 0.00 | 0.00 | 46 | 1017.9 |
| 20260505034004 | 54 | 203 | 7.8 | 11.3 | 0.00 | 0.00 | 0.00 | 47 | 1018.0 |
| 20260505033504 | 55 | 204 | 6.1 | 11.3 | 0.00 | 0.00 | 0.00 | 47 | 1018.0 |
| 20260505033004 | 55 | 218 | 6.1 | 11.3 | 0.00 | 0.00 | 0.00 | 47 | 1017.8 |
| 20260505032504 | 55 | 210 | 7.8 | 12.2 | 0.00 | 0.00 | 0.00 | 47 | 1017.6 |
| 20260505032004 | 55 | 210 | 8.7 | 12.2 | 0.00 | 0.00 | 0.00 | 47 | 1017.6 |
| 20260505031504 | 55 | 218 | 7.8 | 13.0 | 0.00 | 0.00 | 0.00 | 47 | 1017.7 |
| 20260505031003 | 55 | 214 | 7.8 | 12.2 | 0.00 | 0.00 | 0.00 | 48 | 1017.7 |
| 20260505030504 | 55 | 208 | 10.4 | 13.9 | 0.00 | 0.00 | 0.00 | 49 | 1017.7 |
| 20260505030004 | 55 | 208 | 8.7 | 13.9 | 0.00 | 0.00 | 0.00 | 49 | 1017.8 |
| 20260505025504 | 55 | 222 | 8.7 | 13.0 | 0.00 | 0.00 | 0.00 | 50 | 1017.7 |
| 20260505025005 | 56 | 218 | 7.8 | 12.2 | 0.00 | 0.00 | 0.00 | 51 | 1017.6 |
| 20260505024503 | 56 | 218 | 8.7 | 13.0 | 0.00 | 0.00 | 0.00 | 52 | 1017.6 |
| 20260505024004 | 56 | 222 | 7.8 | 13.9 | 0.00 | 0.00 | 0.00 | 51 | 1017.5 |
| 20260505022503 | 57 | 222 | 6.1 | 12.2 | 0.00 | 0.00 | 0.00 | 46 | 1017.6 |
| 20260505022004 | 58 | 214 | 7.8 | 13.9 | 0.00 | 0.00 | 0.00 | 45 | 1017.7 |
| 20260505021503 | 58 | 221 | 7.8 | 13.9 | 0.00 | 0.00 | 0.00 | 44 | 1017.4 |
| 20260505021004 | 59 | 216 | 7.8 | 11.3 | 0.00 | 0.00 | 0.00 | 43 | 1017.4 |
| 20260505020504 | 59 | 223 | 6.1 | 13.9 | 0.00 | 0.00 | 0.00 | 42 | 1017.3 |
| 20260505020004 | 59 | 214 | 7.0 | 11.3 | 0.00 | 0.00 | 0.00 | 42 | 1017.5 |
| 20260505015504 | 60 | 226 | 5.2 | 11.3 | 0.00 | 0.00 | 0.00 | 41 | 1017.5 |
| 20260505015004 | 60 | 211 | 7.8 | 12.2 | 0.00 | 0.00 | 0.00 | 40 | 1017.4 |
| 20260505014004 | 61 | 226 | 6.1 | 12.2 | 0.00 | 0.00 | 0.00 | 40 | 1017.4 |
| 20260505013505 | 61 | 208 | 11.3 | 13.9 | 0.00 | 0.00 | 0.00 | 39 | 1017.3 |
| 20260505013004 | 61 | 199 | 10.4 | 15.6 | 0.00 | 0.00 | 0.00 | 39 | 1017.4 |
| 20260505012504 | 62 | 209 | 8.7 | 13.9 | 0.00 | 0.00 | 0.00 | 39 | 1017.3 |
| 20260505012004 | 62 | 205 | 7.8 | 13.9 | 0.00 | 0.00 | 0.00 | 39 | 1017.2 |
| 20260505011504 | 62 | 208 | 8.7 | 14.8 | 0.00 | 0.00 | 0.00 | 39 | 1017.4 |
| 20260505011004 | 62 | 208 | 8.7 | 18.2 | 0.00 | 0.00 | 0.00 | 38 | 1017.3 |
| 20260505010504 | 63 | 197 | 9.6 | 18.2 | 0.00 | 0.00 | 0.00 | 38 | 1017.4 |
| 20260505010005 | 63 | 212 | 11.3 | 17.4 | 0.00 | 0.00 | 0.00 | 37 | 1017.3 |
| 20260505005504 | 64 | 217 | 8.7 | 13.9 | 0.00 | 0.00 | 0.00 | 36 | 1017.2 |
| 20260505005004 | 64 | 225 | 10.4 | 14.8 | 0.00 | 0.00 | 0.00 | 36 | 1017.3 |
| 20260505004504 | 64 | 217 | 8.7 | 15.6 | 0.00 | 0.00 | 0.00 | 36 | 1017.3 |
| 20260505004004 | 65 | 207 | 10.4 | 13.9 | 0.00 | 0.00 | 0.00 | 36 | 1017.2 |
| 20260505003504 | 65 | 213 | 10.4 | 14.8 | 0.00 | 0.00 | 0.00 | 35 | 1017.3 |
| 20260505003004 | 65 | 211 | 8.7 | 15.6 | 0.00 | 0.00 | 0.00 | 35 | 1017.3 |
| 20260505002004 | 65 | 198 | 10.4 | 19.1 | 0.00 | 0.00 | 0.00 | 34 | 1017.5 |
| 20260505001003 | 66 | 206 | 9.6 | 13.9 | 0.00 | 0.00 | 0.00 | 34 | 1017.5 |
| 20260505000504 | 66 | 199 | 10.4 | 17.4 | 0.00 | 0.00 | 0.00 | 34 | 1017.5 |
| 20260505000004 | 65 | 193 | 12.2 | 17.4 | 0.00 | 0.00 | 0.00 | 35 | 1017.3 |
| 20260504235504 | 65 | 202 | 10.4 | 14.8 | 0.00 | 0.00 | 0.00 | 35 | 1017.3 |
| 20260504235004 | 65 | 212 | 7.8 | 13.9 | 0.00 | 0.00 | 0.00 | 35 | 1017.4 |
| 20260504234504 | 66 | 213 | 7.8 | 14.8 | 0.00 | 0.00 | 0.00 | 34 | 1017.4 |
| 20260504234004 | 66 | 201 | 10.4 | 17.4 | 0.00 | 0.00 | 0.00 | 34 | 1017.3 |
| 20260504233503 | 66 | 192 | 9.6 | 13.0 | 0.00 | 0.00 | 0.00 | 34 | 1017.3 |
| 20260504233005 | 67 | 189 | 10.4 | 17.4 | 0.00 | 0.00 | 0.00 | 34 | 1017.3 |
| 20260504232504 | 66 | 191 | 10.4 | 14.8 | 0.00 | 0.00 | 0.00 | 34 | 1017.3 |
| 20260504232004 | 66 | 187 | 9.6 | 14.8 | 0.00 | 0.00 | 0.00 | 33 | 1017.5 |
| 20260504231504 | 67 | 196 | 8.7 | 13.9 | 0.00 | 0.00 | 0.00 | 32 | 1017.4 |
| 20260504231004 | 67 | 196 | 7.8 | 13.9 | 0.00 | 0.00 | 0.00 | 32 | 1017.4 |
| 20260504230504 | 67 | 172 | 11.3 | 17.4 | 0.00 | 0.00 | 0.00 | 32 | 1017.5 |
| 20260504230003 | 68 | 195 | 8.7 | 13.9 | 0.00 | 0.00 | 0.00 | 32 | 1017.4 |
| 20260504225503 | 67 | 178 | 10.4 | 17.4 | 0.00 | 0.00 | 0.00 | 33 | 1017.5 |
| 20260504225004 | 67 | 183 | 9.6 | 14.8 | 0.00 | 0.00 | 0.00 | 32 | 1017.4 |
| 20260504224504 | 68 | 204 | 9.6 | 17.4 | 0.00 | 0.00 | 0.00 | 32 | 1017.4 |
| 20260504224004 | 68 | 186 | 10.4 | 14.8 | 0.00 | 0.00 | 0.00 | 32 | 1017.4 |
| 20260504223004 | 67 | 179 | 10.4 | 14.8 | 0.00 | 0.00 | 0.00 | 32 | 1017.5 |
| 20260504222504 | 67 | 183 | 12.2 | 15.6 | 0.00 | 0.00 | 0.00 | 32 | 1017.7 |
| 20260504222004 | 67 | 177 | 11.3 | 17.4 | 0.00 | 0.00 | 0.00 | 32 | 1017.8 |
| 20260504221504 | 67 | 206 | 7.8 | 12.2 | 0.00 | 0.00 | 0.00 | 33 | 1017.9 |
| 20260504221004 | 67 | 179 | 8.7 | 14.8 | 0.00 | 0.00 | 0.00 | 33 | 1017.8 |
| 20260504220504 | 67 | 201 | 10.4 | 14.8 | 0.00 | 0.00 | 0.00 | 33 | 1018.1 |
| 20260504220003 | 66 | 199 | 7.0 | 12.2 | 0.00 | 0.00 | 0.00 | 34 | 1018.1 |
| 20260504215503 | 66 | 199 | 7.8 | 17.4 | 0.00 | 0.00 | 0.00 | 34 | 1018.3 |
| 20260504215003 | 66 | 194 | 10.4 | 13.9 | 0.00 | 0.00 | 0.00 | 33 | 1018.4 |
| 20260504214503 | 66 | 189 | 7.8 | 13.0 | 0.00 | 0.00 | 0.00 | 34 | 1018.4 |
| 20260504213503 | 65 | 190 | 10.4 | 17.4 | 0.00 | 0.00 | 0.00 | 35 | 1018.4 |
| 20260504213003 | 66 | 198 | 10.4 | 15.6 | 0.00 | 0.00 | 0.00 | 34 | 1018.5 |
| 20260504212503 | 66 | 207 | 7.8 | 13.0 | 0.00 | 0.00 | 0.00 | 34 | 1018.4 |
| 20260504212003 | 66 | 182 | 7.8 | 14.8 | 0.00 | 0.00 | 0.00 | 34 | 1018.6 |